NWS Melbourne » East Central Florida Hourly Weather Roundup

MIARWRMLB 000
TTAA00 KMLB 281311
HOURLY WEATHER ROUNDUP AROUND FLORIDA
NATIONAL WEATHER SERVICE OFFICE MELBOURNE FL
900 AM EDT THU AUG 28 2014
  
CITY           SKY/WX    TMP DP  RH WIND       PRES   REMARKS
MELBOURNE      SUNNY     83  77  82 CALM      30.01R                  
FORT PIERCE    MOSUNNY   83  74  74 CALM      30.01R                  
ORLANDO INTL   SUNNY     80  74  81 CALM      30.02S                  
DAYTONA BEACH  MOSUNNY   80  71  74 NE3       30.02S                  
VERO BEACH     MOSUNNY   82  75  79 CALM      30.01R                  
$$
...ELSEWHERE ACROSS CENTRAL FLORIDA...
  
CITY           SKY/WX    TMP DP  RH WIND       PRES   REMARKS
PATRICK AFB    SUNNY     83  76  80 E2        30.01S                  
JFK SPACE CTR  SUNNY     82  76  81 CALM      30.02R                  
CAPE CANAVERAL SUNNY     83  76  79 VRB1      30.01R                  
TITUSVILLE     SUNNY     81  75  83 CALM      30.02R                  
ORLANDO EXEC   SUNNY     82  74  76 CALM      30.02R                  
LEESBURG       SUNNY     81  73  76 SE3       30.03S                  
SANFORD        SUNNY     81  70  69 NE3       30.02R                  
WINTER HAVEN   SUNNY     80  74  81 E6        30.03S                  
KISSIMMEE      SUNNY     81  75  83 CALM      30.03R                  
OKEECHOBEE       N/A     77  75  94 MISG      30.01S                  
TAMPA          MOSUNNY   81  73  76 E6        30.01S                  
$$
...NORTHERN FLORIDA...
  
CITY           SKY/WX    TMP DP  RH WIND       PRES   REMARKS
DELAND         SUNNY     77  70  78 CALM      30.03F                  
NEW SMYRNA BCH SUNNY     79  73  83 CALM      30.02S                  
ORMOND BEACH   SUNNY     75  72  88 CALM      30.03R                  
PALM COAST     SUNNY     75  70  83 CALM      30.03R                  
ST AUGUSTINE   SUNNY     77  70  79 NW6       30.04R                  
OCALA          SUNNY     73  70  88 CALM      30.03R                  
GAINESVILLE    SUNNY     75  70  84 CALM      30.03R                  
JACKSONVILLE   MOSUNNY   73  68  84 N3        30.03S                  
TALLAHASSEE    MOSUNNY   79  69  71 CALM      30.03R                  
$$
...ALONG THE SOUTHEAST COAST TO THE KEYS...
  
CITY           SKY/WX    TMP DP  RH WIND       PRES   REMARKS
STUART         PTSUNNY   82  75  78 VRB3      30.02R                  
WEST PALM BCH  PTSUNNY   86  74  67 E7        29.98S                  
MIAMI          PTSUNNY   82  75  79 SW10      30.00R                  
KEY WEST       MOSUNNY   85  76  74 S9        29.95S                  
$$
...MARINE REPORTS...
  
STATION/POSITION TIME  TEMP    WIND        PRES    WAVE   SWELL
                       AIR SEA DIR/SP/G            HT/PER HT/PER/DIR
                 (UTC) (F)     (DEG/KT/KT) (MB)    (FT/S) (FT/S/D)
ST AUGUSTINE FP  1300   76     350/  5/  6 1017.7R
20NM E CAPE CANA 1300   82 82  240/  2/  4 1016.6R   7/10   7/ 80/10
120 E NEW SMYRNA 1300   83 83  180/  6/  6 1016.8R   7/10   7/ 40/10
TRIDENT PIER     1300   84 83   CALM  /  1 1015.9S
SEBASTIAN INLET  1300   84     150/  1     1017.0S
4NM E PORT CANAV 1300      82                N/A     4/11   2/ 80/11
6NM NE FPR INLET 1300      83                N/A     5/10   3/ 50/11
SETTLEMENT PT GB 1300   84      90/  7/  8 1016.5R
$$
  
 


USA.gov is the U.S. government's official web portal to all federal, state and local government web resources and services.